CAPE
197 145 82 119 114 82 49 139 90 19 0 0 0 0 0 0 0 0 0 10 3 0 0 0 0 0 0 0 0 0 0 0 0 0 0 0 0 0 0 0 0 0 0 0 0
60 79 61 75 35 4 0 111 6 0 0 0 0 0 0 0 0 0 19 13 0 0 0 0 0 0 0 0 0 0 0 0 0 0 0 0 0 0 0 0 0 0 0 0 0
87 21 28 27 2 15 30 3 1 0 0 0 0 0 0 0 0 0 6 0 0 0 0 0 0 0 0 0 0 0 0 0 0 0 0 0 0 0 0 0 0 0 0 0 0
57 86 77 81 37 25 0 0 0 0 0 0 0 0 0 0 0 0 0 0 0 0 0 0 0 0 0 0 0 0 0 0 0 0 0 0 0 0 0 0 0 0 0 0 0
0 0 0 1 1 3 0 0 0 0 0 0 0 0 0 0 0 0 0 0 0 0 0 0 0 0 0 0 0 0 0 0 0 0 0 0 0 0 0 0 0 0 0 0 0
0 0 0 0 0 0 0 0 0 0 0 0 0 0 0 0 0 0 0 0 0 0 0 0 0 0 0 0 0 0 0 0 0 0 0 0 0 0 0 0 0 0 0 0 0
0 0 0 0 0 0 0 0 0 0 0 0 0 0 0 0 0 0 0 0 0 0 0 0 0 0 0 0 0 0 0 0 0 0 0 0 0 0 0 0 0 0 0 0 0
0 0 0 0 0 0 0 0 0 0 0 0 0 0 0 0 0 0 0 0 0 0 0 0 0 0 0 0 0 0 0 0 0 0 0 0 0 0 0 0 0 0 0 0 0
0 0 0 0 0 0 0 0 0 0 0 0 0 0 0 0 0 0 0 0 0 0 0 0 0 0 0 0 0 0 0 0 0 0 0 0 0 0 0 0 0 0 0 0 0
0 0 0 0 0 0 0 0 0 0 0 0 0 0 0 0 0 0 0 0 0 0 0 0 0 0 0 0 0 0 0 0 0 0 0 0 0 0 0 0 0 0 0 0 0
0 0 0 0 0 0 0 0 0 0 0 0 0 0 0 0 0 0 0 0 0 0 0 0 0 0 0 0 0 0 0 0 0 0 0 0 0 0 0 0 0 0 0 0 0
0 0 0 0 0 0 0 0 0 0 0 0 0 0 0 0 0 0 0 0 0 0 0 0 0 0 0 0 0 0 0 0 0 0 0 0 0 0 0 0 0 0 0 0 0
1 0 0 0 0 0 0 0 0 0 0 0 0 0 0 0 0 0 0 0 0 0 0 0 0 0 0 0 0 0 0 0 0 0 0 0 0 0 0 0 0 0 0 0 0
1 0 0 0 0 0 0 0 0 0 0 0 0 0 0 0 0 0 0 0 0 0 0 0 0 0 0 0 0 0 0 0 0 0 0 0 0 0 0 0 0 0 0 0 0
1 0 0 0 0 0 0 0 0 0 0 0 0 0 0 0 0 0 0 0 0 0 0 0 0 0 0 0 0 0 0 0 0 0 1 0 0 0 0 0 0 0 0 0 0
0 0 0 0 0 0 0 0 0 0 0 0 0 0 0 0 0 0 0 0 0 0 0 0 0 0 0 0 0 0 0 0 0 0 0 0 0 0 0 0 0 0 0 0 0
0 0 0 0 0 0 0 0 0 0 0 0 0 0 0 0 0 0 0 0 0 0 0 0 0 0 0 0 0 0 0 0 0 0 0 0 0 0 0 0 0 0 0 0 0
0 0 0 0 0 0 0 0 0 0 0 0 0 0 0 0 0 0 0 0 0 0 0 0 0 0 0 0 0 0 0 0 0 0 0 0 0 0 0 0 0 0 0 0 0
0 0 0 0 0 0 0 0 0 0 0 0 0 0 0 0 0 0 0 0 0 0 0 0 0 0 0 0 0 0 0 0 0 0 0 0 0 0 0 0 0 0 0 0 0
0 0 0 0 0 0 0 0 0 0 0 0 0 0 0 0 0 0 0 0 0 0 0 0 0 0 0 0 0 0 0 0 0 0 0 0 0 0 0 0 0 0 0 0 0
0 0 0 0 0 0 0 0 0 0 0 0 0 0 0 0 0 0 0 0 0 0 0 0 0 0 0 0 0 0 0 0 0 0 0 0 0 0 0 0 0 0 0 0 0
0 0 0 0 0 0 0 0 0 0 0 0 0 0 0 0 0 0 0 0 0 0 0 0 0 0 0 0 0 0 0 0 0 0 0 0 0 0 0 0 0 0 0 0 0
0 0 0 0 0 0 0 0 0 0 0 0 0 0 0 0 0 0 0 0 0 0 0 0 0 0 0 0 0 0 0 0 0 0 0 0 0 0 0 0 0 0 0 0 0
0 0 0 0 0 0 0 0 0 0 0 0 0 0 0 0 0 0 0 0 0 0 0 0 0 0 0 0 0 0 0 0 0 0 0 0 0 0 0 0 0 0 0 0 0
0 0 0 0 0 0 0 0 0 0 0 0 0 0 0 0 0 0 0 0 0 0 0 0 0 0 0 0 0 0 0 0 0 0 0 0 0 0 0 0 0 0 0 0 0
0 0 0 0 0 0 0 0 0 0 0 0 0 0 0 0 0 0 0 0 0 0 0 0 0 0 0 0 0 0 0 0 0 0 0 0 0 0 0 0 0 0 0 0 0
0 0 0 0 0 0 0 0 0 0 0 0 0 0 0 0 0 0 0 0 0 0 0 0 0 0 0 0 0 0 0 0 0 0 0 0 0 0 0 0 0 0 0 0 0
CIN
-1 -45 0 -1 -16 -1 -11 0 0 -1 0 0 0 0 0 0 0 0 0 -2 -1 0 0 0 0 0 0 0 0 0 0 0 0 0 0 0 0 0 0 0 0 0 0 0 0
-37 -2 -3 0 -6 -5 0 0 -1 0 0 0 0 0 0 0 0 0 -1 0 0 0 0 0 0 0 0 0 0 0 0 0 0 0 0 0 0 0 0 0 0 0 0 0 0
-1 -8 -12 -18 -3 -18 -12 0 0 0 0 0 0 0 0 0 0 0 0 0 0 0 0 0 0 0 0 0 0 0 0 0 0 0 0 0 0 0 0 0 0 0 0 0 0
-1 0 -9 -14 0 -3 0 0 0 0 0 0 0 0 0 0 0 0 0 0 0 0 0 0 0 0 0 0 0 0 0 0 0 0 0 0 0 0 0 0 0 0 0 0 0
0 0 0 0 0 0 0 0 0 0 0 0 0 0 0 0 0 0 0 0 0 0 0 0 0 0 0 0 0 0 0 0 0 0 0 0 0 0 0 0 0 0 0 0 0
0 0 0 0 0 0 0 0 0 0 0 0 0 0 0 0 0 0 0 0 0 0 0 0 0 0 0 0 0 0 0 0 0 0 0 0 0 0 0 0 0 0 0 0 0
0 0 0 0 0 0 0 0 0 0 0 0 0 0 0 0 0 0 0 0 0 0 0 0 0 0 0 0 0 0 0 0 0 0 0 0 0 0 0 0 0 0 0 0 0
0 0 0 0 0 0 0 0 0 0 0 0 0 0 0 0 0 0 0 0 0 0 0 0 0 0 0 0 0 0 0 0 0 0 0 0 0 0 0 0 0 0 0 0 0
0 0 0 0 0 0 0 0 0 0 0 0 0 0 0 0 0 0 0 0 0 0 0 0 0 0 0 0 0 0 0 0 0 0 0 0 0 0 0 0 0 0 0 0 0
0 0 0 0 0 0 0 0 0 0 0 0 0 0 0 0 0 0 0 0 0 0 0 0 0 0 0 0 0 0 0 0 0 0 0 0 0 0 0 0 0 0 0 0 0
0 0 0 0 0 0 0 0 0 0 0 0 0 0 0 0 0 0 0 0 0 0 0 0 0 0 0 0 0 0 0 0 0 0 0 0 0 0 0 0 0 0 0 0 0
0 0 0 0 0 0 0 0 0 0 0 0 0 0 0 0 0 0 0 0 0 0 0 0 0 0 0 0 0 0 0 0 0 0 0 0 0 0 0 0 0 0 0 0 0
0 0 0 0 0 0 0 0 0 0 0 0 0 0 0 0 0 0 0 0 0 0 0 0 0 0 0 0 0 0 0 0 0 0 0 0 0 0 0 0 0 0 0 0 0
0 0 0 0 0 0 0 0 0 0 0 0 0 0 0 0 0 0 0 0 0 0 0 0 0 0 0 0 0 0 0 0 0 0 0 0 0 0 0 0 0 0 0 0 0
0 0 0 0 0 0 0 0 0 0 0 0 0 0 0 0 0 0 0 0 0 0 0 0 0 0 0 0 0 0 0 0 0 0 0 0 0 0 0 0 0 0 0 0 0
0 0 0 0 0 0 0 0 0 0 0 0 0 0 0 0 0 0 0 0 0 0 0 0 0 0 0 0 0 0 0 0 0 0 0 0 0 0 0 0 0 0 0 0 0
0 0 0 0 0 0 0 0 0 0 0 0 0 0 0 0 0 0 0 0 0 0 0 0 0 0 0 0 0 0 0 0 0 0 0 0 0 0 0 0 0 0 0 0 0
0 0 0 0 0 0 0 0 0 0 0 0 0 0 0 0 0 0 0 0 0 0 0 0 0 0 0 0 0 0 0 0 0 0 0 0 0 0 0 0 0 0 0 0 0
0 0 0 0 0 0 0 0 0 0 0 0 0 0 0 0 0 0 0 0 0 0 0 0 0 0 0 0 0 0 0 0 0 0 0 0 0 0 0 0 0 0 0 0 0
0 0 0 0 0 0 0 0 0 0 0 0 0 0 0 0 0 0 0 0 0 0 0 0 0 0 0 0 0 0 0 0 0 0 0 0 0 0 0 0 0 0 0 0 0
0 0 0 0 0 0 0 0 0 0 0 0 0 0 0 0 0 0 0 0 0 0 0 0 0 0 0 0 0 0 0 0 0 0 0 0 0 0 0 0 0 0 0 0 0
0 0 0 0 0 0 0 0 0 0 0 0 0 0 0 0 0 0 0 0 0 0 0 0 0 0 0 0 0 0 0 0 0 0 0 0 0 0 0 0 0 0 0 0 0
0 0 0 0 0 0 0 0 0 0 0 0 0 0 0 0 0 0 0 0 0 0 0 0 0 0 0 0 0 0 0 0 0 0 0 0 0 0 0 0 0 0 0 0 0
0 0 0 0 0 0 0 0 0 0 0 0 0 0 0 0 0 0 0 0 0 0 0 0 0 0 0 0 0 0 0 0 0 0 0 0 0 0 0 0 0 0 0 0 0
0 0 0 0 0 0 0 0 0 0 0 0 0 0 0 0 0 0 0 0 0 0 0 0 0 0 0 0 0 0 0 0 0 0 0 0 0 0 0 0 0 0 0 0 0
0 0 0 0 0 0 0 0 0 0 0 0 0 0 0 0 0 0 0 0 0 0 0 0 0 0 0 0 0 0 0 0 0 0 0 0 0 0 0 0 0 0 0 0 0
0 0 0 -1 0 0 0 0 0 0 0 0 0 0 0 0 0 0 0 0 0 0 0 0 0 0 0 0 0 0 0 0 0 0 0 0 0 0 0 0 0 0 0 0 0
Wind_Speed
18 22 19 22 21 18 14 18 19 17 16 15 13 10 9 5 1 6 16 9 8 11 6 2 7 5 5 5 4 2 3 2 3 3 4 4 4 2 2 3 2 3 3 1 2
25 23 20 18 18 15 9 18 17 16 15 15 11 7 5 5 11 15 13 14 13 10 4 5 4 4 4 3 3 4 2 5 2 2 3 5 2 5 5 3 4 4 3 3 2
26 23 19 17 15 10 14 16 16 16 14 9 6 5 6 2 5 5 16 14 14 7 3 2 3 3 5 2 2 2 4 2 3 3 2 3 4 2 3 5 8 4 3 2 2
25 23 21 21 17 16 15 14 13 12 9 7 6 7 6 3 5 4 15 12 12 9 4 6 5 4 3 2 3 2 2 2 3 2 3 4 3 6 8 10 7 7 4 3 8
22 20 19 18 16 13 11 11 12 10 8 6 6 5 4 7 3 5 12 10 5 5 8 4 6 2 3 0 2 2 2 4 7 9 7 8 11 11 9 13 14 8 10 12 12
20 17 14 12 10 8 8 9 8 8 6 6 5 3 5 8 6 5 5 5 6 6 7 7 2 1 4 1 0 2 5 8 8 7 5 7 8 3 9 9 12 11 13 11 11
20 17 14 10 8 6 5 5 6 7 7 5 5 4 10 4 2 5 6 3 3 2 2 1 2 2 3 1 1 2 6 5 3 3 5 2 5 9 17 7 14 16 13 11 9
16 15 14 11 9 7 6 7 7 6 3 3 5 6 4 2 2 4 5 2 4 1 1 2 2 4 1 2 4 3 3 4 3 3 5 3 17 17 17 6 11 11 9 7 9
19 18 17 16 14 12 8 5 6 5 3 1 5 6 2 5 2 3 1 2 4 3 3 2 4 2 3 4 5 5 4 6 11 4 3 3 20 14 10 11 15 16 14 12 10
20 18 17 17 15 12 5 1 6 5 6 3 3 5 2 1 3 4 3 4 2 2 2 6 5 4 4 4 2 4 6 7 11 5 4 16 25 23 21 18 16 16 15 13 11
17 17 16 15 13 11 4 4 6 5 9 4 1 4 2 5 2 1 2 1 1 6 5 5 4 4 6 5 3 3 6 15 16 14 9 12 24 28 24 18 16 16 14 12 12
19 16 14 12 8 9 5 6 1 3 5 2 1 1 1 1 3 3 2 5 6 3 2 4 4 2 2 3 5 5 9 12 10 2 7 16 27 22 14 11 15 17 12 12 6
18 16 14 13 3 6 5 3 0 0 5 3 1 1 1 2 1 3 3 2 2 1 1 4 3 3 2 4 5 5 7 5 8 11 5 15 11 7 6 5 5 11 11 8 11
19 18 15 15 7 0 4 2 1 1 7 8 6 3 3 2 3 1 1 2 1 2 1 5 3 1 2 5 3 5 4 6 8 10 7 8 9 8 8 13 4 7 6 9 8
18 14 8 10 4 4 0 1 1 3 7 4 6 2 1 1 4 2 1 2 2 2 4 3 1 1 2 4 4 9 5 9 3 3 4 2 3 11 5 8 9 7 6 6 6
16 9 3 5 4 1 4 2 3 9 3 4 3 5 4 2 3 4 1 4 0 0 1 6 3 2 4 3 4 8 7 3 2 1 1 2 1 8 4 4 8 4 6 5 2
12 8 5 1 1 2 2 4 7 9 2 6 4 4 2 3 4 3 4 6 4 6 7 6 2 3 2 4 2 7 5 5 7 7 4 2 2 13 11 10 4 9 7 4 4
7 4 4 2 1 1 3 5 12 3 3 2 3 4 2 4 1 5 3 5 1 3 2 4 8 1 2 1 2 4 3 4 4 5 8 3 7 8 5 7 9 7 8 5 4
2 3 2 4 3 2 5 9 5 4 2 6 4 2 4 3 1 5 2 1 3 2 3 4 6 3 1 1 3 2 4 1 1 2 4 5 8 11 4 5 6 5 4 5 5
3 2 2 5 2 3 7 4 2 2 1 1 3 1 2 5 6 5 2 2 2 1 1 2 7 1 2 2 3 2 4 3 2 6 7 5 6 7 4 5 7 8 8 7 6
4 4 3 5 2 5 5 3 3 3 2 0 1 3 2 4 1 2 2 3 2 2 2 3 3 5 1 4 6 2 1 4 3 2 2 6 9 6 6 5 7 8 7 8 8
2 4 3 3 6 2 2 1 1 2 0 1 1 2 2 2 3 3 3 5 5 6 3 3 3 5 6 1 2 1 4 5 5 3 2 1 13 4 6 7 5 9 9 8 7
3 3 3 3 5 4 5 3 2 1 2 2 2 4 2 2 4 2 3 1 5 5 6 6 1 6 4 3 2 3 4 3 4 2 8 5 11 2 4 7 6 9 12 12 11
3 4 5 6 0 3 4 3 6 1 2 1 2 2 1 2 3 4 3 1 4 3 4 6 3 8 8 8 2 5 5 6 5 4 5 14 16 25 17 11 16 13 12 12 12
4 0 3 4 3 2 1 1 3 5 0 0 1 4 3 3 3 5 4 5 3 4 3 4 6 6 14 14 13 21 21 14 15 15 9 2 9 17 19 16 17 14 11 13 14
2 2 1 3 1 1 2 3 4 4 2 2 4 2 5 5 8 17 11 3 7 2 6 3 5 1 9 13 12 13 20 16 20 20 25 23 28 24 23 12 8 10 10 12 12
2 1 1 2 2 2 4 5 3 2 5 5 6 3 6 14 15 16 13 11 11 9 9 7 3 2 5 3 8 10 7 7 6 8 7 10 15 5 9 7 7 9 10 12 13
Wind_Direction
63 88 86 85 87 97 70 122 106 107 108 105 95 85 74 51 88 49 49 21 3 354 7 346 33 23 39 61 48 98 76 217 241 195 283 336 342 315 313 253 256 222 191 268 85
98 90 87 82 87 93 71 108 102 104 104 102 85 58 24 341 62 55 3 9 7 358 37 54 20 36 53 50 31 79 132 221 214 248 266 305 289 321 331 337 265 253 235 252 138
87 79 86 91 95 97 93 90 96 98 100 92 59 12 349 336 55 354 348 1 4 11 68 69 55 61 64 21 11 156 197 183 239 238 244 262 285 226 271 281 236 228 224 213 225
60 71 75 85 87 91 98 100 98 94 81 58 20 352 353 8 86 290 343 356 14 21 60 36 35 53 75 62 338 329 272 226 275 267 310 277 271 266 226 245 245 214 223 272 276
54 64 73 78 81 86 90 93 90 84 66 38 2 354 58 49 62 303 336 357 21 25 47 56 50 72 104 158 323 194 276 289 261 272 256 258 251 253 253 244 254 256 250 242 243
46 50 54 66 76 86 88 78 74 65 41 13 11 91 70 78 266 311 322 10 29 37 27 42 96 98 102 104 92 296 266 277 280 267 259 259 267 190 265 263 260 254 247 231 226
31 33 36 42 44 48 66 64 45 29 11 7 22 76 65 156 294 323 18 20 3 36 57 73 133 125 170 149 278 285 310 303 244 228 272 289 276 233 254 292 264 265 254 267 254
27 26 27 29 27 19 24 26 10 344 332 17 55 65 86 295 281 6 355 334 354 75 157 171 104 106 79 251 12 15 67 354 276 270 267 115 284 274 258 267 268 275 269 258 276
16 14 13 10 8 3 343 339 18 72 76 80 38 91 96 324 25 312 340 325 310 354 6 73 73 97 29 51 2 19 280 261 295 234 284 210 290 263 262 261 269 274 266 269 272
10 7 4 1 349 352 360 122 36 35 8 21 49 52 5 300 300 345 343 353 351 336 5 35 44 42 36 70 265 284 288 251 259 284 268 285 272 273 264 256 243 253 256 251 253
5 1 358 354 337 349 62 51 26 351 42 105 182 124 313 309 0 306 297 161 341 58 35 15 22 228 222 200 223 253 254 267 279 287 293 276 285 288 284 264 242 241 246 250 248
358 355 352 351 333 13 66 76 110 174 87 350 110 4 275 234 10 329 84 55 41 15 7 13 249 225 275 250 250 255 280 284 289 300 300 304 299 294 297 272 236 238 240 240 235
352 349 345 343 335 40 74 84 162 275 91 3 337 20 280 60 326 314 53 61 74 342 214 186 274 10 304 303 293 255 242 276 282 328 261 326 286 320 310 319 288 249 242 230 220
346 342 343 336 55 258 49 340 336 55 78 318 350 9 6 59 353 253 90 118 326 264 286 227 274 254 292 265 208 285 206 262 300 342 324 27 295 313 324 326 334 303 268 261 236
347 345 358 36 143 52 34 343 141 63 60 295 309 294 28 21 304 358 330 73 237 258 77 276 350 11 282 231 186 253 307 290 290 234 297 341 294 276 336 336 353 340 327 300 285
352 4 29 29 54 5 340 33 44 46 282 340 293 344 7 7 326 322 25 43 217 268 199 259 304 230 235 280 218 298 308 41 70 316 346 293 46 286 301 306 319 333 352 328 308
357 25 51 61 96 343 72 47 45 88 288 311 321 6 334 305 335 35 9 6 41 16 7 328 256 276 240 316 13 1 359 341 358 8 264 349 270 251 278 279 265 302 305 306 287
6 53 35 54 336 114 68 56 66 244 275 356 325 315 335 357 341 337 11 7 68 81 51 38 334 104 337 87 318 9 36 111 299 330 300 332 238 262 240 290 283 275 278 289 261
69 12 36 339 350 93 77 48 181 206 309 330 316 15 339 11 320 12 27 242 231 197 67 21 278 307 161 313 100 6 40 166 254 232 288 268 283 288 301 329 342 330 322 271 248
78 67 309 324 5 68 70 150 203 222 231 16 346 55 315 306 8 29 324 205 186 199 101 189 304 217 286 130 37 140 151 38 27 348 305 291 281 250 326 340 343 333 313 296 286
51 44 266 343 85 50 98 219 261 228 192 158 240 298 292 309 287 287 262 257 173 150 56 128 127 287 313 190 170 125 138 73 127 172 221 307 275 217 249 301 310 300 292 289 289
55 29 309 15 47 31 84 284 298 267 136 224 157 235 235 314 289 291 265 230 152 149 152 195 157 276 255 358 43 147 183 160 131 243 216 168 272 242 249 267 269 287 294 290 263
55 277 321 63 75 5 316 308 256 255 239 193 235 202 164 256 308 221 286 337 156 163 172 175 230 325 348 44 9 242 206 137 101 66 201 167 259 233 274 291 275 282 293 289 284
51 359 333 44 55 101 13 323 319 296 284 198 293 112 139 262 218 289 280 302 188 226 190 164 194 194 222 242 144 238 210 201 160 165 204 230 278 277 296 301 311 311 298 291 287
32 288 182 330 347 64 219 281 307 319 218 204 281 232 191 297 275 238 242 280 186 231 146 174 237 207 253 267 267 266 266 235 214 219 212 266 237 276 293 300 302 307 298 303 302
90 67 328 247 262 218 194 238 222 276 226 278 212 317 185 232 238 285 284 252 241 154 179 171 263 141 276 249 257 264 253 237 234 236 245 259 276 279 278 285 275 277 288 299 304
221 166 123 255 242 238 226 236 245 181 256 218 220 251 252 251 253 256 258 252 240 181 195 173 216 293 258 339 305 281 242 177 185 200 200 199 224 274 288 276 279 301 303 293 301